| time (UTC) | temp F | wind direction | speed knots | gust knots | rain 1hr in | rain 24hr in | rain mn in | humidity % | barometer mb |
| 20260509101557 | 58 | 117 | 0.0 | 0.0 | 0.00 | 0.00 | 0.00 | 76 | 1025.9 |
| 20260509101059 | 58 | 117 | 0.0 | 0.0 | 0.00 | 0.00 | 0.00 | 75 | 1025.9 |
| 20260509100557 | 58 | 117 | 0.0 | 0.0 | 0.00 | 0.00 | 0.00 | 75 | 1025.9 |
| 20260509100057 | 58 | 117 | 0.0 | 0.0 | 0.00 | 0.00 | 0.00 | 74 | 1025.8 |
| 20260509095557 | 58 | 118 | 0.0 | 0.0 | 0.00 | 0.00 | 0.00 | 74 | 1025.8 |
| 20260509095056 | 59 | 117 | 0.0 | 0.0 | 0.00 | 0.00 | 0.00 | 73 | 1025.8 |
| 20260509094821 | 59 | 117 | 0.0 | 0.0 | 0.00 | 0.00 | 0.00 | 72 | 1025.7 |
| 20260509094056 | 59 | 117 | 0.0 | 0.0 | 0.00 | 0.00 | 0.00 | 72 | 1025.6 |
| 20260509093557 | 60 | 117 | 0.0 | 0.0 | 0.00 | 0.00 | 0.00 | 72 | 1025.6 |
| 20260509093548 | 60 | 117 | 0.0 | 0.0 | 0.00 | 0.00 | 0.00 | 71 | 1025.5 |
| 20260509092558 | 60 | 117 | 0.0 | 0.0 | 0.00 | 0.00 | 0.00 | 71 | 1025.5 |
| 20260509092057 | 60 | 117 | 0.0 | 0.0 | 0.00 | 0.00 | 0.00 | 70 | 1025.4 |
| 20260509091558 | 61 | 117 | 0.0 | 0.0 | 0.00 | 0.00 | 0.00 | 69 | 1025.3 |
| 20260509091057 | 61 | 118 | 0.0 | 0.0 | 0.00 | 0.00 | 0.00 | 68 | 1025.3 |
| 20260509090830 | 62 | 117 | 0.0 | 0.0 | 0.00 | 0.00 | 0.00 | 67 | 1025.2 |
| 20260509090058 | 62 | 117 | 0.0 | 0.0 | 0.00 | 0.00 | 0.00 | 66 | 1025.1 |
| 20260509085554 | 62 | 118 | 0.0 | 0.0 | 0.00 | 0.00 | 0.00 | 66 | 1025.1 |
| 20260509085540 | 62 | 117 | 0.0 | 0.0 | 0.00 | 0.00 | 0.00 | 65 | 1025.0 |
| 20260509084554 | 63 | 118 | 0.0 | 0.0 | 0.00 | 0.00 | 0.00 | 64 | 1024.9 |
| 20260509084050 | 63 | 117 | 0.0 | 0.0 | 0.00 | 0.00 | 0.00 | 64 | 1024.8 |
| 20260509083550 | 63 | 117 | 0.0 | 0.0 | 0.00 | 0.00 | 0.00 | 64 | 1024.8 |
| 20260509083319 | 63 | 117 | 0.0 | 0.0 | 0.00 | 0.00 | 0.00 | 64 | 1024.7 |
| 20260509082551 | 64 | 117 | 0.0 | 0.0 | 0.00 | 0.00 | 0.00 | 65 | 1024.7 |
| 20260509082046 | 64 | 117 | 0.0 | 0.0 | 0.00 | 0.00 | 0.00 | 65 | 1024.6 |
| 20260509081539 | 64 | 117 | 0.0 | 0.0 | 0.00 | 0.00 | 0.00 | 65 | 1024.5 |
| 20260509081518 | 64 | 117 | 0.0 | 0.0 | 0.00 | 0.00 | 0.00 | 64 | 1024.4 |
| 20260509080528 | 64 | 117 | 0.0 | 0.0 | 0.00 | 0.00 | 0.00 | 64 | 1024.4 |
| 20260509080022 | 64 | 117 | 0.0 | 0.0 | 0.00 | 0.00 | 0.00 | 64 | 1024.3 |
| 20260509075516 | 64 | 117 | 0.0 | 0.0 | 0.00 | 0.00 | 0.00 | 64 | 1024.2 |
| 20260509075010 | 65 | 117 | 0.0 | 0.0 | 0.00 | 0.00 | 0.00 | 63 | 1024.2 |
| 20260509074503 | 65 | 117 | 0.0 | 0.0 | 0.00 | 0.00 | 0.00 | 63 | 1024.1 |
| 20260509073959 | 65 | 118 | 0.0 | 0.0 | 0.00 | 0.00 | 0.00 | 63 | 1024.1 |
| 20260509073452 | 65 | 117 | 0.0 | 0.0 | 0.00 | 0.00 | 0.00 | 63 | 1024.0 |
| 20260509072945 | 65 | 117 | 0.0 | 0.0 | 0.00 | 0.00 | 0.00 | 62 | 1023.9 |
| 20260509072441 | 65 | 117 | 0.0 | 0.0 | 0.00 | 0.00 | 0.00 | 62 | 1023.9 |
| 20260509071940 | 65 | 118 | 0.0 | 0.0 | 0.00 | 0.00 | 0.00 | 62 | 1023.9 |
| 20260509071440 | 66 | 117 | 0.0 | 0.0 | 0.00 | 0.00 | 0.00 | 61 | 1023.8 |
| 20260509070941 | 66 | 117 | 0.0 | 0.0 | 0.00 | 0.00 | 0.00 | 61 | 1023.7 |
| 20260509070440 | 66 | 117 | 0.0 | 0.0 | 0.00 | 0.00 | 0.00 | 61 | 1023.7 |
| 20260509065941 | 66 | 118 | 0.0 | 0.0 | 0.00 | 0.00 | 0.00 | 60 | 1023.6 |
| 20260509065441 | 67 | 117 | 0.0 | 0.0 | 0.00 | 0.00 | 0.00 | 60 | 1023.5 |
| 20260509064941 | 67 | 118 | 0.0 | 0.0 | 0.00 | 0.00 | 0.00 | 60 | 1023.5 |
| 20260509064438 | 67 | 118 | 0.0 | 0.9 | 0.00 | 0.00 | 0.00 | 59 | 1023.4 |
| 20260509063940 | 67 | 118 | 0.0 | 0.9 | 0.00 | 0.00 | 0.00 | 58 | 1023.4 |
| 20260509063440 | 68 | 117 | 0.0 | 0.9 | 0.00 | 0.00 | 0.00 | 58 | 1023.3 |
| 20260509062937 | 68 | 118 | 0.0 | 0.9 | 0.00 | 0.00 | 0.00 | 57 | 1023.3 |
| 20260509062438 | 68 | 117 | 0.0 | 0.9 | 0.00 | 0.00 | 0.00 | 57 | 1023.1 |
| 20260509061939 | 68 | 117 | 0.0 | 7.8 | 0.00 | 0.00 | 0.00 | 56 | 1023.1 |
| 20260509061702 | 69 | 117 | 0.0 | 7.8 | 0.00 | 0.00 | 0.00 | 55 | 1023.0 |
| 20260509060934 | 69 | 115 | 0.0 | 0.0 | 0.00 | 0.00 | 0.00 | 55 | 1023.0 |
| 20260509060434 | 69 | 121 | 0.0 | 1.7 | 0.00 | 0.00 | 0.00 | 54 | 1022.9 |
| 20260509055935 | 70 | 121 | 0.0 | 1.7 | 0.00 | 0.00 | 0.00 | 54 | 1022.9 |
| 20260509055429 | 70 | 122 | 0.0 | 2.6 | 0.00 | 0.00 | 0.00 | 53 | 1022.8 |
| 20260509054924 | 70 | 123 | 0.0 | 2.6 | 0.00 | 0.00 | 0.00 | 53 | 1022.8 |
| 20260509054419 | 71 | 150 | 0.0 | 3.5 | 0.00 | 0.00 | 0.00 | 52 | 1022.8 |
| 20260509053912 | 71 | 160 | 0.0 | 3.5 | 0.00 | 0.00 | 0.00 | 51 | 1022.7 |
| 20260509053406 | 72 | 266 | 0.0 | 0.0 | 0.00 | 0.00 | 0.00 | 50 | 1022.6 |
| 20260509052951 | 73 | 266 | 0.0 | 0.0 | 0.00 | 0.00 | 0.00 | 49 | 1022.6 |
| 20260509051848 | 73 | 266 | 0.0 | 0.0 | 0.00 | 0.00 | 0.00 | 47 | 1022.6 |
| 20260509051558 | 74 | 266 | 0.0 | 0.0 | 0.00 | 0.00 | 0.00 | 43 | 1022.5 |
| 20260509050842 | 73 | 266 | 0.0 | 0.0 | 0.00 | 0.00 | 0.00 | 43 | 1022.5 |
| 20260509050339 | 73 | 266 | 0.0 | 0.0 | 0.00 | 0.00 | 0.00 | 43 | 1022.5 |
| 20260509045838 | 73 | 266 | 0.0 | 0.0 | 0.00 | 0.00 | 0.00 | 42 | 1022.5 |
| 20260509045334 | 74 | 266 | 0.0 | 0.0 | 0.00 | 0.00 | 0.00 | 42 | 1022.5 |
| 20260509044836 | 74 | 266 | 0.0 | 0.0 | 0.00 | 0.00 | 0.00 | 43 | 1022.5 |
| 20260509044335 | 74 | 266 | 0.0 | 0.0 | 0.00 | 0.00 | 0.00 | 43 | 1022.5 |
| 20260509043832 | 74 | 266 | 0.0 | 0.0 | 0.00 | 0.00 | 0.00 | 43 | 1022.5 |
| 20260509043330 | 74 | 266 | 0.0 | 0.0 | 0.00 | 0.00 | 0.00 | 42 | 1022.5 |
| 20260509042832 | 74 | 266 | 0.0 | 0.0 | 0.00 | 0.00 | 0.00 | 42 | 1022.5 |
| 20260509042332 | 74 | 266 | 0.0 | 0.0 | 0.00 | 0.00 | 0.00 | 42 | 1022.5 |
| 20260509041830 | 74 | 266 | 0.9 | 11.3 | 0.00 | 0.00 | 0.00 | 44 | 1022.5 |
| 20260509041328 | 74 | 266 | 0.9 | 11.3 | 0.00 | 0.00 | 0.00 | 43 | 1022.5 |
| 20260509040827 | 74 | 265 | 0.0 | 1.7 | 0.00 | 0.00 | 0.00 | 43 | 1022.5 |
| 20260509040323 | 74 | 265 | 0.0 | 2.6 | 0.00 | 0.00 | 0.00 | 44 | 1022.5 |
| 20260509035822 | 74 | 265 | 0.0 | 2.6 | 0.00 | 0.00 | 0.00 | 44 | 1022.5 |
| 20260509035324 | 73 | 263 | 0.0 | 0.9 | 0.00 | 0.00 | 0.00 | 43 | 1022.5 |
| 20260509034822 | 73 | 263 | 0.0 | 1.7 | 0.00 | 0.00 | 0.00 | 44 | 1022.5 |
| 20260509034544 | 73 | 263 | 0.0 | 1.7 | 0.00 | 0.00 | 0.00 | 44 | 1022.6 |
| 20260509033824 | 73 | 263 | 0.9 | 13.0 | 0.00 | 0.00 | 0.00 | 44 | 1022.6 |
| 20260509033318 | 73 | 264 | 1.7 | 13.0 | 0.00 | 0.00 | 0.00 | 43 | 1022.6 |
| 20260509033252 | 73 | 266 | 0.9 | 6.1 | 0.00 | 0.00 | 0.00 | 43 | 1022.6 |
| 20260509032307 | 73 | 264 | 0.0 | 1.7 | 0.00 | 0.00 | 0.00 | 44 | 1022.7 |
| 20260509031759 | 72 | 264 | 0.0 | 2.6 | 0.00 | 0.00 | 0.00 | 44 | 1022.7 |
| 20260509031253 | 72 | 264 | 0.0 | 2.6 | 0.00 | 0.00 | 0.00 | 44 | 1022.8 |
| 20260509030748 | 72 | 266 | 0.9 | 6.1 | 0.00 | 0.00 | 0.00 | 44 | 1022.9 |
| 20260509030242 | 72 | 269 | 1.7 | 13.9 | 0.00 | 0.00 | 0.00 | 44 | 1022.9 |
| 20260509025959 | 73 | 263 | 1.7 | 13.9 | 0.00 | 0.00 | 0.00 | 44 | 1023.0 |
| 20260509025230 | 73 | 251 | 0.9 | 9.6 | 0.00 | 0.00 | 0.00 | 44 | 1023.0 |
| 20260509024723 | 73 | 260 | 0.9 | 7.0 | 0.00 | 0.00 | 0.00 | 44 | 1023.1 |
| 20260509024218 | 73 | 301 | 0.9 | 7.0 | 0.00 | 0.00 | 0.00 | 44 | 1023.2 |
| 20260509023711 | 72 | 264 | 0.0 | 6.1 | 0.00 | 0.00 | 0.00 | 44 | 1023.3 |
| 20260509023206 | 72 | 261 | 0.0 | 6.1 | 0.00 | 0.00 | 0.00 | 45 | 1023.4 |
| 20260509022659 | 72 | 280 | 0.0 | 0.0 | 0.00 | 0.00 | 0.00 | 45 | 1023.4 |
| 20260509022154 | 72 | 280 | 0.0 | 0.0 | 0.00 | 0.00 | 0.00 | 46 | 1023.6 |
| 20260509021648 | 72 | 280 | 0.0 | 1.7 | 0.00 | 0.00 | 0.00 | 46 | 1023.7 |
| 20260509021142 | 72 | 280 | 0.0 | 1.7 | 0.00 | 0.00 | 0.00 | 46 | 1023.7 |
| 20260509020636 | 71 | 280 | 0.0 | 1.7 | 0.00 | 0.00 | 0.00 | 47 | 1023.8 |
| 20260509020130 | 71 | 281 | 0.0 | 0.0 | 0.00 | 0.00 | 0.00 | 47 | 1023.9 |
| 20260509015623 | 71 | 281 | 0.0 | 0.0 | 0.00 | 0.00 | 0.00 | 47 | 1024.0 |
| 20260509015119 | 71 | 281 | 0.0 | 0.0 | 0.00 | 0.00 | 0.00 | 48 | 1024.1 |
| 20260509014611 | 70 | 281 | 0.0 | 0.0 | 0.00 | 0.00 | 0.00 | 49 | 1024.1 |
| 20260509014106 | 70 | 281 | 0.0 | 0.0 | 0.00 | 0.00 | 0.00 | 49 | 1024.2 |
| 20260509013831 | 69 | 281 | 0.0 | 3.5 | 0.00 | 0.00 | 0.00 | 50 | 1024.3 |
| 20260509013323 | 69 | 281 | 0.0 | 3.5 | 0.00 | 0.00 | 0.00 | 50 | 1024.3 |
| 20260509012812 | 69 | 281 | 0.0 | 7.8 | 0.00 | 0.00 | 0.00 | 52 | 1024.3 |
| 20260509012041 | 69 | 281 | 0.9 | 7.8 | 0.00 | 0.00 | 0.00 | 52 | 1024.3 |
| 20260509011535 | 69 | 279 | 0.0 | 7.0 | 0.00 | 0.00 | 0.00 | 52 | 1024.4 |
| 20260509011253 | 69 | 278 | 0.0 | 6.1 | 0.00 | 0.00 | 0.00 | 53 | 1024.3 |
| 20260509010524 | 68 | 278 | 0.0 | 6.1 | 0.00 | 0.00 | 0.00 | 53 | 1024.4 |
| 20260509010020 | 68 | 271 | 0.0 | 0.0 | 0.00 | 0.00 | 0.00 | 54 | 1024.5 |
| 20260509005512 | 67 | 271 | 0.0 | 6.1 | 0.00 | 0.00 | 0.00 | 56 | 1024.6 |
| 20260509005005 | 67 | 271 | 0.0 | 6.1 | 0.00 | 0.00 | 0.00 | 57 | 1024.7 |
| 20260509004459 | 67 | 271 | 0.0 | 6.1 | 0.00 | 0.00 | 0.00 | 57 | 1024.7 |
| 20260509003954 | 66 | 271 | 0.9 | 6.1 | 0.00 | 0.00 | 0.00 | 58 | 1024.7 |
| 20260509003448 | 66 | 262 | 0.0 | 6.1 | 0.00 | 0.00 | 0.00 | 59 | 1024.7 |
| 20260509003207 | 65 | 263 | 0.9 | 6.1 | 0.00 | 0.00 | 0.00 | 61 | 1024.8 |
| 20260509002436 | 65 | 263 | 0.9 | 6.1 | 0.00 | 0.00 | 0.00 | 62 | 1024.8 |
| 20260509001930 | 65 | 263 | 0.9 | 7.0 | 0.00 | 0.00 | 0.00 | 63 | 1024.8 |
| 20260509001424 | 64 | 263 | 0.9 | 7.0 | 0.00 | 0.00 | 0.00 | 63 | 1024.8 |
| 20260509000918 | 64 | 263 | 0.9 | 6.1 | 0.00 | 0.00 | 0.00 | 64 | 1024.8 |
| 20260509000412 | 64 | 263 | 0.0 | 2.6 | 0.00 | 0.00 | 0.00 | 65 | 1024.9 |
| 20260509000126 | 63 | 263 | 0.0 | 1.7 | 0.00 | 0.00 | 0.00 | 67 | 1024.9 |
| 20260508235400 | 63 | 263 | 0.0 | 6.1 | 0.00 | 0.00 | 0.00 | 67 | 1025.0 |
| 20260508234854 | 62 | 263 | 0.0 | 6.1 | 0.00 | 0.00 | 0.00 | 67 | 1024.9 |
| 20260508234348 | 62 | 263 | 0.0 | 8.7 | 0.00 | 0.00 | 0.00 | 68 | 1025.0 |
| 20260508234059 | 62 | 263 | 0.0 | 8.7 | 0.00 | 0.00 | 0.00 | 69 | 1024.9 |
| 20260508233554 | 61 | 263 | 0.0 | 0.0 | 0.00 | 0.00 | 0.00 | 70 | 1025.0 |
| 20260508232830 | 61 | 263 | 0.0 | 1.7 | 0.00 | 0.00 | 0.00 | 70 | 1025.0 |
| 20260508232324 | 60 | 263 | 0.0 | 1.7 | 0.00 | 0.00 | 0.00 | 72 | 1024.9 |
| 20260508231818 | 60 | 263 | 0.0 | 0.0 | 0.00 | 0.00 | 0.00 | 73 | 1024.9 |
| 20260508231311 | 60 | 263 | 0.0 | 0.0 | 0.00 | 0.00 | 0.00 | 75 | 1025.0 |
| 20260508230806 | 59 | 263 | 0.0 | 0.0 | 0.00 | 0.00 | 0.00 | 75 | 1025.0 |
| 20260508230259 | 58 | 263 | 0.0 | 0.0 | 0.00 | 0.00 | 0.00 | 77 | 1025.0 |
| 20260508230019 | 58 | 263 | 0.0 | 0.0 | 0.00 | 0.00 | 0.00 | 78 | 1025.0 |
| 20260508225248 | 57 | 263 | 0.0 | 0.0 | 0.00 | 0.00 | 0.00 | 81 | 1024.9 |
| 20260508224742 | 57 | 263 | 0.0 | 0.0 | 0.00 | 0.00 | 0.00 | 83 | 1024.9 |
| 20260508224236 | 56 | 263 | 0.0 | 0.0 | 0.00 | 0.00 | 0.00 | 84 | 1024.9 |
| 20260508223729 | 56 | 263 | 0.0 | 0.0 | 0.00 | 0.00 | 0.00 | 85 | 1024.9 |
| 20260508223450 | 55 | 263 | 0.0 | 0.0 | 0.00 | 0.00 | 0.00 | 85 | 1024.9 |
| 20260508222718 | 55 | 263 | 0.0 | 0.0 | 0.00 | 0.00 | 0.00 | 86 | 1024.9 |
| 20260508222441 | 54 | 263 | 0.0 | 0.0 | 0.00 | 0.00 | 0.00 | 87 | 1024.9 |
| 20260508221705 | 53 | 263 | 0.0 | 0.0 | 0.00 | 0.00 | 0.00 | 88 | 1024.9 |
| 20260508221200 | 53 | 263 | 0.0 | 0.0 | 0.00 | 0.00 | 0.00 | 88 | 1024.9 |
| 20260508220653 | 52 | 263 | 0.0 | 0.0 | 0.00 | 0.00 | 0.00 | 89 | 1024.9 |
| 20260508220149 | 51 | 263 | 0.0 | 0.0 | 0.00 | 0.00 | 0.00 | 89 | 1024.8 |
| 20260508215901 | 51 | 263 | 0.0 | 0.0 | 0.00 | 0.00 | 0.00 | 89 | 1024.8 |
| 20260508215136 | 51 | 263 | 0.0 | 0.0 | 0.00 | 0.00 | 0.00 | 89 | 1024.8 |
| 20260508214629 | 50 | 263 | 0.0 | 0.0 | 0.00 | 0.00 | 0.00 | 89 | 1024.7 |
| 20260508214348 | 49 | 263 | 0.0 | 0.0 | 0.00 | 0.00 | 0.00 | 88 | 1024.6 |
| 20260508213618 | 49 | 263 | 0.0 | 0.0 | 0.00 | 0.00 | 0.00 | 88 | 1024.5 |
| 20260508213111 | 49 | 263 | 0.0 | 0.0 | 0.00 | 0.00 | 0.00 | 88 | 1024.5 |
| 20260508212605 | 48 | 263 | 0.0 | 0.0 | 0.00 | 0.00 | 0.00 | 88 | 1024.5 |
| 20260508212100 | 48 | 263 | 0.0 | 0.0 | 0.00 | 0.00 | 0.00 | 88 | 1024.3 |
| 20260508211553 | 47 | 263 | 0.0 | 0.0 | 0.00 | 0.00 | 0.00 | 88 | 1024.2 |
| 20260508211539 | 47 | 263 | 0.0 | 0.0 | 0.00 | 0.00 | 0.00 | 88 | 1024.2 |
| 20260508210542 | 47 | 263 | 0.0 | 0.0 | 0.00 | 0.00 | 0.00 | 87 | 1024.1 |
| 20260508210259 | 47 | 263 | 0.0 | 0.0 | 0.00 | 0.00 | 0.00 | 87 | 1024.1 |
| 20260508205531 | 47 | 263 | 0.0 | 0.0 | 0.00 | 0.00 | 0.00 | 87 | 1024.1 |
| 20260508205252 | 47 | 263 | 0.0 | 0.0 | 0.00 | 0.00 | 0.00 | 87 | 1024.0 |
| 20260508204518 | 47 | 263 | 0.0 | 0.0 | 0.00 | 0.00 | 0.00 | 86 | 1023.9 |
| 20260508204011 | 47 | 263 | 0.0 | 0.0 | 0.00 | 0.00 | 0.00 | 86 | 1023.9 |
| 20260508203505 | 47 | 263 | 0.0 | 0.0 | 0.00 | 0.00 | 0.00 | 86 | 1023.8 |
| 20260508202959 | 47 | 263 | 0.0 | 0.0 | 0.00 | 0.00 | 0.00 | 86 | 1023.7 |
| 20260508202948 | 47 | 263 | 0.0 | 0.0 | 0.00 | 0.00 | 0.00 | 86 | 1023.7 |
| 20260508201949 | 47 | 263 | 0.0 | 0.0 | 0.00 | 0.00 | 0.00 | 85 | 1023.6 |
| 20260508201442 | 48 | 263 | 0.0 | 0.0 | 0.00 | 0.00 | 0.00 | 85 | 1023.6 |
| 20260508200935 | 48 | 263 | 0.0 | 0.0 | 0.00 | 0.00 | 0.00 | 85 | 1023.5 |
| 20260508200429 | 48 | 263 | 0.0 | 0.0 | 0.00 | 0.00 | 0.00 | 85 | 1023.5 |
| 20260508195924 | 48 | 263 | 0.0 | 0.0 | 0.00 | 0.00 | 0.00 | 89 | 1023.5 |
| 20260508195419 | 49 | 263 | 0.0 | 0.0 | 0.00 | 0.00 | 0.00 | 85 | 1023.4 |
| 20260508194912 | 49 | 263 | 0.0 | 0.0 | 0.00 | 0.00 | 0.00 | 85 | 1023.3 |
| 20260508194406 | 49 | 263 | 0.0 | 0.0 | 0.00 | 0.00 | 0.00 | 85 | 1023.2 |
| 20260508193900 | 49 | 263 | 0.0 | 0.0 | 0.00 | 0.00 | 0.00 | 85 | 1023.1 |
| 20260508193353 | 49 | 263 | 0.0 | 0.0 | 0.00 | 0.00 | 0.00 | 84 | 1023.0 |
| 20260508192849 | 49 | 263 | 0.0 | 0.0 | 0.00 | 0.00 | 0.00 | 84 | 1022.9 |
| 20260508192606 | 49 | 263 | 0.0 | 0.0 | 0.00 | 0.00 | 0.00 | 84 | 1022.9 |
| 20260508191838 | 50 | 263 | 0.0 | 0.0 | 0.00 | 0.00 | 0.00 | 84 | 1022.8 |
| 20260508191824 | 50 | 263 | 0.0 | 0.0 | 0.00 | 0.00 | 0.00 | 84 | 1022.7 |
| 20260508190823 | 50 | 263 | 0.0 | 0.0 | 0.00 | 0.00 | 0.00 | 84 | 1022.7 |
| 20260508190318 | 50 | 263 | 0.0 | 0.0 | 0.00 | 0.00 | 0.00 | 84 | 1022.6 |
| 20260508185819 | 50 | 263 | 0.0 | 0.0 | 0.00 | 0.00 | 0.00 | 83 | 1022.6 |
| 20260508185317 | 50 | 263 | 0.0 | 0.0 | 0.00 | 0.00 | 0.00 | 83 | 1022.6 |
| 20260508184819 | 50 | 263 | 0.0 | 0.0 | 0.00 | 0.00 | 0.00 | 83 | 1022.6 |
| 20260508184314 | 51 | 263 | 0.0 | 0.0 | 0.00 | 0.00 | 0.00 | 83 | 1022.5 |
| 20260508183816 | 50 | 263 | 0.0 | 0.0 | 0.00 | 0.00 | 0.00 | 83 | 1022.5 |
| 20260508183314 | 50 | 263 | 0.0 | 0.0 | 0.00 | 0.00 | 0.00 | 83 | 1022.4 |
| 20260508183033 | 50 | 263 | 0.0 | 0.0 | 0.00 | 0.00 | 0.00 | 83 | 1022.4 |
| 20260508182315 | 51 | 263 | 0.0 | 0.0 | 0.00 | 0.00 | 0.00 | 82 | 1022.4 |
| 20260508181817 | 51 | 263 | 0.0 | 0.0 | 0.00 | 0.00 | 0.00 | 82 | 1022.3 |
| 20260508181315 | 51 | 263 | 0.0 | 0.0 | 0.00 | 0.00 | 0.00 | 82 | 1022.3 |
| 20260508180816 | 51 | 263 | 0.0 | 0.0 | 0.00 | 0.00 | 0.00 | 82 | 1022.2 |
| 20260508180313 | 51 | 263 | 0.0 | 0.0 | 0.00 | 0.00 | 0.00 | 82 | 1022.2 |
| 20260508175814 | 51 | 263 | 0.0 | 0.0 | 0.00 | 0.00 | 0.00 | 82 | 1022.2 |
| 20260508175311 | 51 | 263 | 0.0 | 0.0 | 0.00 | 0.00 | 0.00 | 81 | 1022.2 |
| 20260508174809 | 51 | 263 | 0.0 | 0.0 | 0.00 | 0.00 | 0.00 | 81 | 1022.2 |
| 20260508174309 | 51 | 263 | 0.0 | 0.0 | 0.00 | 0.00 | 0.00 | 81 | 1022.2 |
| 20260508173854 | 51 | 263 | 0.0 | 0.0 | 0.00 | 0.00 | 0.00 | 81 | 1022.3 |
| 20260508172757 | 51 | 263 | 0.0 | 0.0 | 0.00 | 0.00 | 0.00 | 81 | 1022.2 |
| 20260508172255 | 51 | 263 | 0.0 | 0.0 | 0.00 | 0.00 | 0.00 | 81 | 1022.2 |
| 20260508171755 | 51 | 263 | 0.0 | 0.0 | 0.00 | 0.00 | 0.00 | 81 | 1022.1 |
| 20260508171255 | 51 | 263 | 0.0 | 0.0 | 0.00 | 0.00 | 0.00 | 81 | 1022.0 |
| 20260508170753 | 51 | 263 | 0.0 | 0.0 | 0.00 | 0.00 | 0.00 | 81 | 1022.1 |
| 20260508170252 | 51 | 263 | 0.0 | 0.0 | 0.00 | 0.00 | 0.00 | 81 | 1022.1 |
| 20260508165752 | 51 | 263 | 0.0 | 0.0 | 0.00 | 0.00 | 0.00 | 81 | 1022.1 |
| 20260508165248 | 51 | 263 | 0.0 | 0.0 | 0.00 | 0.00 | 0.00 | 81 | 1022.1 |
| 20260508165013 | 51 | 263 | 0.0 | 0.0 | 0.00 | 0.00 | 0.00 | 81 | 1022.2 |
| 20260508164248 | 51 | 263 | 0.0 | 0.0 | 0.00 | 0.00 | 0.00 | 81 | 1022.2 |
| 20260508163750 | 52 | 263 | 0.0 | 0.0 | 0.00 | 0.00 | 0.00 | 80 | 1022.1 |
| 20260508163244 | 51 | 263 | 0.0 | 0.0 | 0.00 | 0.00 | 0.00 | 80 | 1022.2 |
| 20260508162744 | 51 | 263 | 0.0 | 0.0 | 0.00 | 0.00 | 0.00 | 80 | 1022.1 |
| 20260508162244 | 52 | 263 | 0.0 | 0.0 | 0.00 | 0.00 | 0.00 | 80 | 1022.1 |
| 20260508161741 | 52 | 263 | 0.0 | 0.0 | 0.00 | 0.00 | 0.00 | 80 | 1022.1 |
| 20260508161243 | 52 | 263 | 0.0 | 0.0 | 0.00 | 0.00 | 0.00 | 79 | 1022.1 |
| 20260508160742 | 52 | 263 | 0.0 | 0.0 | 0.00 | 0.00 | 0.00 | 79 | 1022.1 |
| 20260508160248 | 52 | 263 | 0.0 | 0.0 | 0.00 | 0.00 | 0.00 | 78 | 1022.0 |
| 20260508160239 | 52 | 263 | 0.0 | 0.0 | 0.00 | 0.00 | 0.00 | 78 | 1022.1 |
| 20260508155236 | 52 | 263 | 0.0 | 0.0 | 0.00 | 0.00 | 0.00 | 78 | 1022.0 |
| 20260508154738 | 52 | 263 | 0.0 | 0.0 | 0.00 | 0.00 | 0.00 | 78 | 1022.1 |
| 20260508154234 | 52 | 263 | 0.0 | 0.0 | 0.00 | 0.00 | 0.00 | 77 | 1022.0 |
| 20260508153956 | 52 | 263 | 0.0 | 0.0 | 0.00 | 0.00 | 0.00 | 77 | 1022.1 |
| 20260508153232 | 52 | 263 | 0.0 | 0.0 | 0.00 | 0.00 | 0.00 | 76 | 1022.1 |
| 20260508152734 | 53 | 263 | 0.0 | 0.0 | 0.00 | 0.00 | 0.00 | 76 | 1022.0 |
| 20260508152232 | 53 | 263 | 0.0 | 0.0 | 0.00 | 0.00 | 0.00 | 75 | 1022.0 |
| 20260508151731 | 53 | 263 | 0.0 | 0.0 | 0.00 | 0.00 | 0.00 | 75 | 1022.0 |
| 20260508151446 | 53 | 263 | 0.0 | 0.0 | 0.00 | 0.00 | 0.00 | 74 | 1022.2 |
| 20260508150730 | 53 | 263 | 0.0 | 0.0 | 0.00 | 0.00 | 0.00 | 74 | 1022.2 |
| 20260508150722 | 54 | 263 | 0.0 | 0.0 | 0.00 | 0.00 | 0.00 | 74 | 1022.2 |
| 20260508145724 | 54 | 263 | 0.0 | 0.0 | 0.00 | 0.00 | 0.00 | 74 | 1022.0 |
| 20260508145222 | 54 | 263 | 0.0 | 0.0 | 0.00 | 0.00 | 0.00 | 74 | 1022.0 |
| 20260508144721 | 54 | 263 | 0.0 | 0.0 | 0.00 | 0.00 | 0.00 | 73 | 1021.9 |
| 20260508144222 | 54 | 263 | 0.0 | 0.0 | 0.00 | 0.00 | 0.00 | 73 | 1022.0 |
| 20260508144210 | 54 | 263 | 0.0 | 0.0 | 0.00 | 0.00 | 0.00 | 73 | 1022.0 |
| 20260508143218 | 54 | 263 | 0.0 | 0.0 | 0.00 | 0.00 | 0.00 | 72 | 1022.0 |
| 20260508142718 | 55 | 263 | 0.0 | 0.0 | 0.00 | 0.00 | 0.00 | 72 | 1022.0 |
| 20260508142218 | 55 | 263 | 0.0 | 0.0 | 0.00 | 0.00 | 0.00 | 72 | 1022.0 |
| 20260508141941 | 55 | 263 | 0.0 | 0.0 | 0.00 | 0.00 | 0.00 | 72 | 1022.1 |
| 20260508141214 | 55 | 263 | 0.0 | 0.0 | 0.00 | 0.00 | 0.00 | 72 | 1022.1 |
| 20260508140941 | 55 | 263 | 0.0 | 0.0 | 0.00 | 0.00 | 0.00 | 71 | 1022.0 |
| 20260508140213 | 55 | 263 | 0.0 | 0.0 | 0.00 | 0.00 | 0.00 | 71 | 1021.8 |
| 20260508135932 | 55 | 263 | 0.0 | 0.0 | 0.00 | 0.00 | 0.00 | 71 | 1021.8 |
| 20260508135209 | 55 | 263 | 0.0 | 0.0 | 0.00 | 0.00 | 0.00 | 71 | 1021.8 |
| 20260508134702 | 55 | 263 | 0.0 | 0.0 | 0.00 | 0.00 | 0.00 | 71 | 1021.7 |
| 20260508134154 | 56 | 263 | 0.0 | 0.0 | 0.00 | 0.00 | 0.00 | 71 | 1021.7 |
| 20260508133649 | 56 | 263 | 0.0 | 0.0 | 0.00 | 0.00 | 0.00 | 71 | 1021.7 |
| 20260508133149 | 56 | 263 | 0.0 | 0.0 | 0.00 | 0.00 | 0.00 | 70 | 1021.8 |
| 20260508132650 | 56 | 263 | 0.0 | 0.0 | 0.00 | 0.00 | 0.00 | 70 | 1021.8 |
| 20260508132149 | 56 | 263 | 0.0 | 0.0 | 0.00 | 0.00 | 0.00 | 70 | 1021.8 |
| 20260508131647 | 56 | 263 | 0.0 | 0.0 | 0.00 | 0.00 | 0.00 | 70 | 1021.7 |
| 20260508131147 | 56 | 263 | 0.0 | 0.0 | 0.00 | 0.00 | 0.00 | 70 | 1021.7 |
| 20260508130647 | 56 | 263 | 0.0 | 0.0 | 0.00 | 0.00 | 0.00 | 70 | 1021.7 |
| 20260508130148 | 56 | 263 | 0.0 | 0.0 | 0.00 | 0.00 | 0.00 | 70 | 1021.7 |
| 20260508125645 | 56 | 263 | 0.0 | 0.0 | 0.00 | 0.00 | 0.00 | 69 | 1021.7 |
| 20260508125403 | 56 | 263 | 0.0 | 0.0 | 0.00 | 0.00 | 0.00 | 69 | 1021.7 |
| 20260508124641 | 57 | 263 | 0.0 | 0.0 | 0.00 | 0.00 | 0.00 | 69 | 1021.8 |
| 20260508124142 | 57 | 263 | 0.0 | 0.0 | 0.00 | 0.00 | 0.00 | 69 | 1021.8 |
| 20260508123903 | 57 | 263 | 0.0 | 0.0 | 0.00 | 0.00 | 0.00 | 69 | 1021.7 |
| 20260508123143 | 57 | 263 | 0.0 | 0.0 | 0.00 | 0.00 | 0.00 | 69 | 1021.7 |
| 20260508122641 | 57 | 263 | 0.0 | 0.0 | 0.00 | 0.00 | 0.00 | 68 | 1021.7 |
| 20260508122141 | 57 | 263 | 0.0 | 0.0 | 0.00 | 0.00 | 0.00 | 68 | 1021.7 |
| 20260508121640 | 57 | 263 | 0.0 | 0.0 | 0.00 | 0.00 | 0.00 | 68 | 1021.7 |
| 20260508121140 | 57 | 263 | 0.0 | 0.0 | 0.00 | 0.00 | 0.00 | 68 | 1021.8 |
| 20260508120637 | 57 | 263 | 0.0 | 0.0 | 0.00 | 0.00 | 0.00 | 68 | 1021.7 |
| 20260508120133 | 57 | 263 | 0.0 | 0.0 | 0.00 | 0.00 | 0.00 | 67 | 1021.6 |
| 20260508115633 | 57 | 263 | 0.0 | 0.0 | 0.00 | 0.00 | 0.00 | 67 | 1021.6 |
| 20260508115130 | 58 | 263 | 0.0 | 0.0 | 0.00 | 0.00 | 0.00 | 67 | 1021.6 |
| 20260508114628 | 58 | 263 | 0.0 | 0.0 | 0.00 | 0.00 | 0.00 | 67 | 1021.7 |
| 20260508114128 | 58 | 263 | 0.0 | 0.0 | 0.00 | 0.00 | 0.00 | 66 | 1021.7 |
| 20260508113849 | 58 | 263 | 0.0 | 0.0 | 0.00 | 0.00 | 0.00 | 66 | 1021.7 |
| 20260508113129 | 58 | 263 | 0.0 | 0.0 | 0.00 | 0.00 | 0.00 | 65 | 1021.6 |
| 20260508112623 | 58 | 263 | 0.0 | 0.0 | 0.00 | 0.00 | 0.00 | 66 | 1021.6 |
| 20260508112123 | 58 | 263 | 0.0 | 0.0 | 0.00 | 0.00 | 0.00 | 66 | 1021.6 |
| 20260508111623 | 58 | 263 | 0.0 | 0.0 | 0.00 | 0.00 | 0.00 | 66 | 1021.5 |
| 20260508111342 | 58 | 263 | 3.5 | 13.0 | 0.00 | 0.00 | 0.00 | 66 | 1021.4 |
| 20260508110622 | 58 | 263 | 6.1 | 13.0 | 0.00 | 0.00 | 0.00 | 66 | 1021.2 |
| 20260508110123 | 58 | 263 | 4.3 | 11.3 | 0.00 | 0.00 | 0.00 | 66 | 1021.1 |
| 20260508105621 | 58 | 262 | 1.7 | 9.6 | 0.00 | 0.00 | 0.00 | 66 | 1021.2 |
| 20260508105123 | 58 | 262 | 0.0 | 0.0 | 0.00 | 0.00 | 0.00 | 65 | 1021.2 |
| 20260508104622 | 58 | 262 | 0.0 | 0.0 | 0.00 | 0.00 | 0.00 | 65 | 1021.3 |
| 20260508104339 | 58 | 262 | 0.0 | 0.0 | 0.00 | 0.00 | 0.00 | 65 | 1021.2 |
| 20260508103621 | 59 | 262 | 0.0 | 0.0 | 0.00 | 0.00 | 0.00 | 64 | 1021.2 |
| 20260508103344 | 59 | 262 | 0.0 | 0.0 | 0.00 | 0.00 | 0.00 | 64 | 1021.2 |
| 20260508102617 | 59 | 262 | 0.0 | 0.0 | 0.00 | 0.00 | 0.00 | 64 | 1021.1 |